Luqa, Malta

11:15 PM CEST on October 18, 2017 (GMT +0200)
Luqa

Weather History for LMML - November, 2012

Change the Weather History Date:

Friday, November 30, 2012

  Actual Average Record
Temperature  
Mean Temperature 57 °F -  
Max Temperature 61 °F 62 °F 75 °F (2014)
Min Temperature 53 °F 52 °F 50 °F (1998)
Degree Days  
Heating Degree Days 8    
Growing Degree Days 7 (Base 50)    
Moisture  
Dew Point 44 °F    
Average Humidity 56    
Maximum Humidity 82    
Minimum Humidity 40    
Precipitation  
Precipitation 0.20 in 0.15 in - ()
Sea Level Pressure  
Sea Level Pressure 29.71 in    
Wind  
Wind Speed 11 mph ()    
Max Wind Speed 22 mph    
Max Gust Speed 33 mph    
Visibility 6.7 miles    
Events Rain    
Averages and records for this station are not official NWS values.
T = Trace of Precipitation, MM = Missing Value Source: Averaged Metar Reports

Daily Weather History Graph

Daily Weather History Graph

Search for Another Location

Airport or City:

Trip Planner

Search our weather history database for the weather conditions in past years. The results will help you decide how hot, cold, wet, or windy it might be!

Date:

Astronomy

Nov. 30, 2012 Rise Set
Actual Time 6:53 AM CET 4:48 PM CET
Civil Twilight 6:25 AM CET 5:16 PM CET
Nautical Twilight 5:53 AM CET 5:48 PM CET
Astronomical Twilight 5:22 AM CET 6:18 PM CET
Moon 6:27 PM CET (11/30) 8:12 AM CET (11/30)
Length of Visible Light 10h 51m
Length of Day
9h 55m
Full, 97% of the Moon is Illuminated
Nov 30
Full
Dec 6
Last Quarter
Dec 13
New
Dec 20
First Quarter
Dec 28
Full

Hourly Weather History & Observations

Time (CET) Temp. Dew Point Humidity Pressure Visibility Wind Dir Wind Speed Gust Speed Precip Events Conditions
12:15 AM 60.8 °F 41.0 °F 48% 29.71 in - WSW 12.7 mph - N/A   Clear
12:45 AM 60.8 °F 41.0 °F 48% 29.71 in 6.2 mi WSW 16.1 mph - N/A   Scattered Clouds
1:00 AM 60 °F 42 °F 41% 29.72 in 7 mi West 13.8 mph - -  
1:15 AM 59.0 °F 41.0 °F 51% 29.71 in - WSW 13.8 mph - N/A   Clear
1:45 AM 59.0 °F 41.0 °F 51% 29.71 in - West 13.8 mph - N/A   Clear
2:15 AM 59.0 °F 42.8 °F 55% 29.71 in 6.2 mi West 12.7 mph - N/A   Partly Cloudy
2:45 AM 59.0 °F 41.0 °F 51% 29.68 in - West 11.5 mph - N/A   Clear
3:15 AM 59.0 °F 42.8 °F 55% 29.68 in 6.2 mi WSW 11.5 mph - N/A   Partly Cloudy
3:45 AM 59.0 °F 42.8 °F 55% 29.68 in 6.2 mi WSW 9.2 mph - N/A   Partly Cloudy
4:00 AM 59 °F 43 °F 45% 29.69 in 19 mi WSW 9.2 mph - -   Scattered Clouds
4:15 AM 59.0 °F 42.8 °F 55% 29.68 in 6.2 mi WSW 11.5 mph - N/A   Partly Cloudy
4:45 AM 59.0 °F 44.6 °F 59% 29.68 in 6.2 mi WSW 9.2 mph - N/A   Scattered Clouds
5:15 AM 59.0 °F 44.6 °F 59% 29.65 in 6.2 mi WSW 11.5 mph - N/A   Scattered Clouds
5:45 AM 59.0 °F 46.4 °F 63% 29.68 in 6.2 mi WSW 8.1 mph - N/A   Scattered Clouds
6:15 AM 59.0 °F 46.4 °F 63% 29.68 in 6.2 mi WSW 8.1 mph - N/A   Scattered Clouds
6:45 AM 59.0 °F 44.6 °F 59% 29.68 in 6.2 mi SW 8.1 mph - N/A   Scattered Clouds
7:00 AM 60 °F 42 °F 40% 29.67 in 9 mi SW 10.4 mph - -  
7:15 AM 60.8 °F 41.0 °F 48% 29.68 in 6.2 mi SW 12.7 mph - N/A   Scattered Clouds
7:45 AM 60.8 °F 41.0 °F 48% 29.68 in 6.2 mi SW 13.8 mph - N/A   Scattered Clouds
8:15 AM 60.8 °F 41.0 °F 48% 29.68 in 6.2 mi SW 12.7 mph - N/A   Scattered Clouds
8:45 AM 60.8 °F 42.8 °F 52% 29.68 in 6.2 mi SW 12.7 mph - N/A   Scattered Clouds
9:15 AM 60.8 °F 41.0 °F 48% 29.68 in 6.2 mi SW 16.1 mph - N/A   Mostly Cloudy
9:45 AM 60.8 °F 42.8 °F 52% 29.71 in 5.6 mi SW 17.3 mph - N/A Rain Rain
10:00 AM 58 °F 46 °F 56% 29.73 in 3 mi WSW 19.6 mph - - Rain Rain
10:15 AM 57.2 °F 48.2 °F 72% 29.71 in 2.5 mi SW 21.9 mph 33.4 mph N/A Rain Rain
10:45 AM 55.4 °F 48.2 °F 77% 29.74 in 3.1 mi West 16.1 mph - N/A Rain Light Rain
11:15 AM 55.4 °F 50.0 °F 82% 29.71 in 5.6 mi WSW 13.8 mph - N/A Rain Light Rain
11:45 AM 55.4 °F 50.0 °F 82% 29.71 in 5.0 mi WSW 12.7 mph - N/A Rain Light Rain
12:15 PM 53.6 °F 48.2 °F 82% 29.71 in 5.6 mi West 19.6 mph 31.1 mph N/A Rain Rain
12:45 PM 55.4 °F 46.4 °F 72% 29.68 in 6.2 mi WSW 13.8 mph - N/A Rain Light Rain
1:00 PM 57 °F 45 °F 55% 29.70 in 12 mi WSW 17.3 mph - - Rain Light Rain
1:15 PM 59.0 °F 46.4 °F 63% 29.68 in 6.2 mi WSW 16.1 mph - N/A   Partly Cloudy
1:45 PM 60.8 °F 48.2 °F 63% 29.68 in 6.2 mi WSW 18.4 mph - N/A   Unknown
2:15 PM 60.8 °F 44.6 °F 55% 29.68 in 6.2 mi West 17.3 mph - N/A   Scattered Clouds
2:45 PM 60.8 °F 42.8 °F 52% 29.68 in 6.2 mi West 16.1 mph 28.8 mph N/A   Partly Cloudy
3:15 PM 60.8 °F 42.8 °F 52% 29.68 in 6.2 mi West 15.0 mph - N/A   Scattered Clouds
3:45 PM 60.8 °F 42.8 °F 52% 29.68 in 6.2 mi West 13.8 mph - N/A   Scattered Clouds
4:00 PM 60 °F 43 °F 42% 29.71 in 12 mi West 10.4 mph - -   Partly Cloudy
4:15 PM 59.0 °F 42.8 °F 55% 29.71 in 6.2 mi West 11.5 mph - N/A   Scattered Clouds
4:45 PM 59.0 °F 41.0 °F 51% 29.71 in 6.2 mi West 11.5 mph - N/A   Scattered Clouds
5:15 PM 59.0 °F 41.0 °F 51% 29.71 in 6.2 mi West 10.4 mph - N/A   Scattered Clouds
5:45 PM 57.2 °F 42.8 °F 59% 29.71 in 6.2 mi West 9.2 mph - N/A   Scattered Clouds
6:15 PM 57.2 °F 42.8 °F 59% 29.74 in 6.2 mi West 8.1 mph - N/A   Partly Cloudy
6:45 PM 57.2 °F 42.8 °F 59% 29.74 in 6.2 mi West 8.1 mph - N/A   Partly Cloudy
7:00 PM 59 °F 42 °F 43% 29.75 in 12 mi West 6.9 mph - -   Partly Cloudy
7:15 PM 59.0 °F 42.8 °F 55% 29.74 in 6.2 mi West 6.9 mph - N/A   Scattered Clouds
7:45 PM 57.2 °F 42.8 °F 59% 29.74 in 6.2 mi West 5.8 mph - N/A   Scattered Clouds
8:15 PM 57.2 °F 41.0 °F 55% 29.77 in 6.2 mi West 5.8 mph - N/A   Scattered Clouds
8:45 PM 57.2 °F 41.0 °F 55% 29.77 in - West 6.9 mph - N/A   Clear
9:15 PM 57.2 °F 42.8 °F 59% 29.77 in 6.2 mi West 5.8 mph - N/A   Mostly Cloudy
9:45 PM 57.2 °F 42.8 °F 59% 29.77 in - West 6.9 mph - N/A   Clear
10:00 PM 57 °F 43 °F 48% 29.80 in 12 mi West 5.8 mph - -   Partly Cloudy
10:15 PM 57.2 °F 42.8 °F 59% 29.80 in 6.2 mi West 5.8 mph - N/A   Scattered Clouds
10:45 PM 57.2 °F 42.8 °F 59% 29.80 in 6.2 mi West 4.6 mph - N/A   Scattered Clouds
11:15 PM 57.2 °F 44.6 °F 63% 29.80 in 6.2 mi WSW 4.6 mph - N/A   Scattered Clouds
11:45 PM 59.0 °F 44.6 °F 59% 29.80 in 6.2 mi West 9.2 mph - N/A   Mostly Cloudy